DLH356 EHAM-EDDC

Flight info

Callsign DLH356
Flight time 1h 0m
Altitude 37000
Route ARNEM L620 BIRKA Z21 RIVSA
Aircraft A339/H-SADE1E2E3GHIJ3J5M1P2RWXY/LB2D1

Departure

Time 2026-04-29 10:44
Airport Amsterdam Airport Schiphol (EHAM)

Arrival

Time 2026-04-29 11:44
Airport Dresden Airport (EDDC)
Time Latitude Longitude Altitude Speed Heading
2026-04-29 09:54 52.31013 4.77020 5 ft 0 kts 179°
2026-04-29 10:28 52.31015 4.77020 5 ft 3 kts 179°
2026-04-29 10:28 52.31040 4.77021 6 ft 4 kts 200°
2026-04-29 10:28 52.31063 4.77037 8 ft 4 kts 229°
2026-04-29 10:29 52.31078 4.77068 6 ft 4 kts 261°
2026-04-29 10:29 52.31080 4.77086 5 ft 0 kts 273°
2026-04-29 10:33 52.31081 4.77066 6 ft 7 kts 273°
2026-04-29 10:33 52.31101 4.76967 5 ft 10 kts 317°
2026-04-29 10:33 52.31171 4.76975 5 ft 11 kts 22°
2026-04-29 10:34 52.31241 4.77036 5 ft 12 kts 32°
2026-04-29 10:34 52.31312 4.77114 5 ft 13 kts 34°
2026-04-29 10:34 52.31389 4.77186 5 ft 13 kts 16°
2026-04-29 10:34 52.31482 4.77196 5 ft 14 kts
2026-04-29 10:35 52.31558 4.77134 5 ft 13 kts 295°
2026-04-29 10:35 52.31561 4.76937 5 ft 22 kts 268°
2026-04-29 10:35 52.31553 4.76663 5 ft 25 kts 266°
2026-04-29 10:35 52.31541 4.76366 5 ft 27 kts 266°
2026-04-29 10:36 52.31532 4.76067 5 ft 20 kts 267°
2026-04-29 10:36 52.31524 4.75831 5 ft 22 kts 267°
2026-04-29 10:36 52.31515 4.75568 5 ft 24 kts 266°
2026-04-29 10:36 52.31505 4.75280 4 ft 26 kts 266°
2026-04-29 10:37 52.31495 4.74971 5 ft 28 kts 268°
2026-04-29 10:37 52.31483 4.74645 5 ft 30 kts 266°
2026-04-29 10:37 52.31475 4.74395 5 ft 19 kts 266°
2026-04-29 10:37 52.31548 4.74306 5 ft 16 kts 355°
2026-04-29 10:38 52.31703 4.74313 5 ft 25 kts
2026-04-29 10:38 52.31874 4.74329 5 ft 24 kts
2026-04-29 10:38 52.32004 4.74312 5 ft 16 kts 325°
2026-04-29 10:38 52.32031 4.74124 5 ft 23 kts 273°
2026-04-29 10:39 52.32042 4.73837 5 ft 26 kts 274°
2026-04-29 10:39 52.32053 4.73529 5 ft 28 kts 274°
2026-04-29 10:39 52.32161 4.73255 5 ft 31 kts 320°
2026-04-29 10:39 52.32327 4.73026 5 ft 29 kts 319°
2026-04-29 10:40 52.32442 4.72874 5 ft 11 kts 323°
2026-04-29 10:40 52.32505 4.72772 5 ft 21 kts 315°
2026-04-29 10:40 52.32623 4.72597 5 ft 24 kts 320°
2026-04-29 10:40 52.32741 4.72402 5 ft 25 kts 310°
2026-04-29 10:41 52.32859 4.72185 5 ft 26 kts 312°
2026-04-29 10:41 52.32982 4.71957 5 ft 27 kts 311°
2026-04-29 10:41 52.33109 4.71726 5 ft 25 kts 312°
2026-04-29 10:41 52.33131 4.71519 5 ft 18 kts 244°
2026-04-29 10:42 52.33035 4.71368 5 ft 20 kts 221°
2026-04-29 10:42 52.32924 4.71205 5 ft 23 kts 220°
2026-04-29 10:42 52.32886 4.71148 5 ft 0 kts 225°
2026-04-29 10:42 52.32869 4.71106 5 ft 14 kts 240°
2026-04-29 10:43 52.32869 4.70961 4 ft 10 kts 284°
2026-04-29 10:43 52.32921 4.70896 3 ft 10 kts 349°
2026-04-29 10:43 52.33015 4.70906 3 ft 26 kts
2026-04-29 10:43 52.33522 4.70950 4 ft 119 kts
2026-04-29 10:44 52.34583 4.71016 105 ft 175 kts
2026-04-29 10:44 52.35754 4.70924 1144 ft 172 kts
2026-04-29 10:44 52.36975 4.70807 2097 ft 180 kts
2026-04-29 10:44 52.38240 4.70613 3038 ft 185 kts
2026-04-29 10:45 52.39520 4.70333 3956 ft 186 kts 359°
2026-04-29 10:45 52.40808 4.70043 4788 ft 190 kts
2026-04-29 10:45 52.42098 4.70610 5360 ft 200 kts 33°
2026-04-29 10:45 52.43270 4.72016 5835 ft 219 kts 45°
2026-04-29 10:46 52.44476 4.73742 6264 ft 242 kts 41°
2026-04-29 10:46 52.45901 4.75384 6775 ft 257 kts 36°
2026-04-29 10:46 52.47298 4.77213 7505 ft 257 kts 52°
2026-04-29 10:46 52.48117 4.79794 8268 ft 258 kts 76°
2026-04-29 10:47 52.48319 4.82724 9076 ft 260 kts 86°
2026-04-29 10:47 52.48438 4.85721 9840 ft 266 kts 86°
2026-04-29 10:47 52.48508 4.88765 10568 ft 270 kts 94°
2026-04-29 10:47 52.47981 4.91824 10902 ft 293 kts 116°
2026-04-29 10:48 52.46794 4.94251 11102 ft 316 kts 136°
2026-04-29 10:48 52.44982 4.96421 11579 ft 328 kts 144°
2026-04-29 10:48 52.43035 4.98440 12285 ft 331 kts 145°
2026-04-29 10:48 52.41115 5.00452 12988 ft 334 kts 144°
2026-04-29 10:49 52.39179 5.02569 13707 ft 336 kts 143°
2026-04-29 10:49 52.37244 5.04757 14362 ft 339 kts 142°
2026-04-29 10:49 52.35319 5.07021 14935 ft 342 kts 139°
2026-04-29 10:49 52.33663 5.09804 15513 ft 342 kts 126°
2026-04-29 10:50 52.32466 5.13101 16118 ft 344 kts 113°
2026-04-29 10:50 52.31610 5.16775 16702 ft 347 kts 109°
2026-04-29 10:50 52.30762 5.20486 17274 ft 351 kts 110°
2026-04-29 10:50 52.29889 5.24223 17905 ft 354 kts 110°
2026-04-29 10:51 52.28993 5.27998 18483 ft 358 kts 110°
2026-04-29 10:51 52.28085 5.31805 19036 ft 361 kts 110°
2026-04-29 10:51 52.27166 5.35642 19567 ft 364 kts 110°
2026-04-29 10:51 52.26252 5.39450 20116 ft 367 kts 110°
2026-04-29 10:52 52.25619 5.42079 20451 ft 370 kts 110°
2026-04-29 10:52 52.24677 5.45996 21018 ft 372 kts 110°
2026-04-29 10:52 52.23727 5.49946 21543 ft 376 kts 110°
2026-04-29 10:52 52.22768 5.53933 22104 ft 379 kts 110°
2026-04-29 10:53 52.21799 5.57956 22649 ft 382 kts 110°
2026-04-29 10:53 52.20833 5.61950 23169 ft 386 kts 110°
2026-04-29 10:53 52.19841 5.66037 23716 ft 389 kts 111°
2026-04-29 10:53 52.18838 5.70165 24217 ft 393 kts 110°
2026-04-29 10:54 52.17824 5.74328 24662 ft 397 kts 110°
2026-04-29 10:54 52.16800 5.78525 25109 ft 401 kts 110°
2026-04-29 10:54 52.15766 5.82756 25525 ft 405 kts 110°
2026-04-29 10:54 52.14718 5.87035 25960 ft 408 kts 110°
2026-04-29 10:55 52.13662 5.91343 26393 ft 412 kts 111°
2026-04-29 10:55 52.12592 5.95690 26823 ft 415 kts 111°
2026-04-29 10:55 52.11513 6.00066 27257 ft 419 kts 110°
2026-04-29 10:55 52.10423 6.04487 27706 ft 422 kts 110°
2026-04-29 10:56 52.09525 6.09053 28073 ft 425 kts 103°
2026-04-29 10:56 52.08973 6.13784 28510 ft 427 kts 98°
2026-04-29 10:56 52.08500 6.18578 28896 ft 431 kts 98°
2026-04-29 10:56 52.08010 6.23407 29282 ft 435 kts 98°
2026-04-29 10:57 52.07506 6.28282 29654 ft 438 kts 98°
2026-04-29 10:57 52.06994 6.33178 30031 ft 442 kts 98°
2026-04-29 10:57 52.06474 6.38112 30443 ft 444 kts 98°
2026-04-29 10:57 52.05947 6.43081 30777 ft 448 kts 98°
2026-04-29 10:58 52.05415 6.48091 31115 ft 451 kts 98°
2026-04-29 10:58 52.04878 6.53122 31482 ft 453 kts 98°
2026-04-29 10:58 52.04337 6.58177 31842 ft 456 kts 98°
2026-04-29 10:58 52.03791 6.63259 32190 ft 459 kts 99°
2026-04-29 10:59 52.03236 6.68394 32485 ft 463 kts 99°
2026-04-29 10:59 52.02682 6.73489 32831 ft 465 kts 99°
2026-04-29 10:59 52.02020 6.78717 33093 ft 468 kts 103°
2026-04-29 10:59 52.01211 6.83769 33337 ft 470 kts 103°
2026-04-29 11:00 52.00394 6.88933 33539 ft 473 kts 103°
2026-04-29 11:00 51.99576 6.94114 33748 ft 475 kts 103°
2026-04-29 11:00 51.98753 6.99320 33964 ft 476 kts 103°
2026-04-29 11:00 51.97927 7.04525 34196 ft 477 kts 104°
2026-04-29 11:01 51.97093 7.09738 34410 ft 477 kts 104°
2026-04-29 11:01 51.96229 7.14933 34609 ft 477 kts 105°
2026-04-29 11:01 51.95276 7.20098 34808 ft 478 kts 106°
2026-04-29 11:01 51.94296 7.25234 34999 ft 476 kts 106°
2026-04-29 11:02 51.93313 7.30390 35098 ft 480 kts 106°
2026-04-29 11:02 51.92335 7.35560 35293 ft 480 kts 106°
2026-04-29 11:02 51.91362 7.40735 35478 ft 480 kts 106°
2026-04-29 11:02 51.90391 7.45915 35667 ft 481 kts 106°
2026-04-29 11:03 51.89418 7.51095 35856 ft 481 kts 106°
2026-04-29 11:03 51.88442 7.56278 36037 ft 482 kts 106°
2026-04-29 11:03 51.87464 7.61457 36220 ft 482 kts 106°
2026-04-29 11:03 51.86492 7.66591 36400 ft 482 kts 106°
2026-04-29 11:04 51.85537 7.71777 36609 ft 481 kts 103°
2026-04-29 11:04 51.84779 7.77059 36778 ft 482 kts 102°
2026-04-29 11:04 51.84036 7.82346 36956 ft 482 kts 102°
2026-04-29 11:04 51.83284 7.87644 37135 ft 482 kts 102°
2026-04-29 11:05 51.82530 7.92924 37343 ft 482 kts 102°
2026-04-29 11:05 51.81004 8.03509 37371 ft 483 kts 102°
2026-04-29 11:06 51.79469 8.14066 37371 ft 481 kts 102°
2026-04-29 11:06 51.77929 8.24585 37372 ft 482 kts 102°
2026-04-29 11:07 51.76382 8.35121 37367 ft 482 kts 102°
2026-04-29 11:07 51.74931 8.45639 37372 ft 484 kts 101°
2026-04-29 11:08 51.73488 8.56222 37373 ft 481 kts 101°
2026-04-29 11:08 51.72023 8.66782 37373 ft 483 kts 101°
2026-04-29 11:09 51.70542 8.77331 37373 ft 482 kts 101°
2026-04-29 11:09 51.69050 8.87885 37373 ft 483 kts 102°
2026-04-29 11:10 51.67548 8.98418 37373 ft 481 kts 101°
2026-04-29 11:10 51.66041 9.08944 37372 ft 483 kts 102°
2026-04-29 11:11 51.64521 9.19468 37371 ft 482 kts 102°
2026-04-29 11:11 51.62991 9.29988 37371 ft 483 kts 102°
2026-04-29 11:12 51.61454 9.40502 37371 ft 482 kts 102°
2026-04-29 11:12 51.59907 9.51013 37370 ft 483 kts 102°
2026-04-29 11:13 51.58346 9.61528 37373 ft 483 kts 102°
2026-04-29 11:13 51.56788 9.71961 37365 ft 482 kts 102°
2026-04-29 11:14 51.55212 9.82445 37367 ft 482 kts 102°
2026-04-29 11:14 51.53629 9.92918 37362 ft 482 kts 102°
2026-04-29 11:15 51.52036 10.03381 37363 ft 482 kts 102°
2026-04-29 11:15 51.50432 10.13837 37362 ft 483 kts 102°
2026-04-29 11:16 51.48818 10.24303 37368 ft 483 kts 102°
2026-04-29 11:16 51.47202 10.34703 37364 ft 484 kts 102°
2026-04-29 11:17 51.45564 10.45184 37372 ft 484 kts 102°
2026-04-29 11:17 51.43923 10.55648 37373 ft 484 kts 102°
2026-04-29 11:18 51.42267 10.66116 37378 ft 485 kts 102°
2026-04-29 11:18 51.40600 10.76602 37380 ft 485 kts 102°
2026-04-29 11:19 51.38968 10.87015 37385 ft 484 kts 100°
2026-04-29 11:19 51.38198 10.97689 37383 ft 481 kts 89°
2026-04-29 11:19 51.38272 11.03043 37233 ft 480 kts 84°
2026-04-29 11:20 51.38493 11.08361 36972 ft 478 kts 84°
2026-04-29 11:20 51.38702 11.13668 36688 ft 477 kts 84°
2026-04-29 11:20 51.38902 11.18974 36034 ft 478 kts 84°
2026-04-29 11:20 51.39095 11.24291 35160 ft 478 kts 84°
2026-04-29 11:21 51.39282 11.29609 34033 ft 480 kts 84°
2026-04-29 11:21 51.39466 11.34960 32571 ft 482 kts 84°
2026-04-29 11:21 51.39648 11.40317 31370 ft 480 kts 84°
2026-04-29 11:21 51.39824 11.45611 30560 ft 472 kts 84°
2026-04-29 11:22 51.39995 11.50800 29958 ft 462 kts 84°
2026-04-29 11:22 51.40162 11.55874 29603 ft 451 kts 84°
2026-04-29 11:22 51.40326 11.60865 28974 ft 446 kts 84°
2026-04-29 11:22 51.40486 11.65786 28367 ft 440 kts 84°
2026-04-29 11:23 51.40640 11.70630 27757 ft 433 kts 84°
2026-04-29 11:23 51.40790 11.75420 27162 ft 428 kts 84°
2026-04-29 11:23 51.40937 11.80164 26568 ft 423 kts 84°
2026-04-29 11:23 51.41080 11.84832 25984 ft 418 kts 84°
2026-04-29 11:24 51.41220 11.89457 25395 ft 413 kts 84°
2026-04-29 11:24 51.41356 11.94029 24820 ft 409 kts 84°
2026-04-29 11:24 51.41490 11.98561 24200 ft 405 kts 84°
2026-04-29 11:24 51.41620 12.03045 23599 ft 401 kts 84°
2026-04-29 11:25 51.41746 12.07461 23037 ft 394 kts 84°
2026-04-29 11:25 51.41870 12.11809 22465 ft 387 kts 84°
2026-04-29 11:25 51.41990 12.16085 21919 ft 381 kts 84°
2026-04-29 11:25 51.42108 12.20320 21358 ft 388 kts 84°
2026-04-29 11:26 51.42365 12.29436 20151 ft 420 kts 85°
2026-04-29 11:26 51.42487 12.34114 19523 ft 419 kts 85°
2026-04-29 11:26 51.42604 12.38753 18907 ft 414 kts 85°
2026-04-29 11:27 51.42718 12.43320 18231 ft 404 kts 85°
2026-04-29 11:27 51.42827 12.47749 17649 ft 392 kts 85°
2026-04-29 11:27 51.42822 12.52006 17068 ft 383 kts 93°
2026-04-29 11:27 51.42248 12.56134 16495 ft 377 kts 107°
2026-04-29 11:28 51.41097 12.59876 15929 ft 372 kts 120°
2026-04-29 11:28 51.39715 12.63331 15352 ft 364 kts 120°
2026-04-29 11:28 51.38374 12.66720 14816 ft 357 kts 120°
2026-04-29 11:28 51.37065 12.70061 14270 ft 351 kts 120°
2026-04-29 11:29 51.35783 12.73348 13717 ft 343 kts 120°
2026-04-29 11:29 51.34507 12.76626 13166 ft 360 kts 120°
2026-04-29 11:29 51.33146 12.80131 12606 ft 379 kts 120°
2026-04-29 11:29 51.31738 12.83733 12002 ft 381 kts 120°
2026-04-29 11:30 51.30339 12.87296 11433 ft 375 kts 120°
2026-04-29 11:30 51.28968 12.90780 10921 ft 363 kts 120°
2026-04-29 11:30 51.27686 12.94048 10693 ft 342 kts 120°
2026-04-29 11:30 51.26460 12.97175 10521 ft 322 kts 119°
2026-04-29 11:31 51.25303 13.00123 10336 ft 303 kts 119°
2026-04-29 11:31 51.24202 13.02922 9861 ft 294 kts 119°
2026-04-29 11:31 51.23133 13.05652 9479 ft 285 kts 119°
2026-04-29 11:31 51.22091 13.08317 9336 ft 286 kts 118°
2026-04-29 11:32 51.21029 13.11002 9201 ft 286 kts 119°
2026-04-29 11:32 51.19971 13.13666 9059 ft 283 kts 118°
2026-04-29 11:32 51.18928 13.16334 8942 ft 283 kts 119°
2026-04-29 11:32 51.17894 13.18995 8810 ft 282 kts 118°
2026-04-29 11:33 51.16856 13.21639 8677 ft 281 kts 119°
2026-04-29 11:33 51.15816 13.24261 8485 ft 279 kts 119°
2026-04-29 11:33 51.14776 13.26865 8292 ft 278 kts 119°
2026-04-29 11:33 51.13735 13.29465 8079 ft 277 kts 119°
2026-04-29 11:34 51.12704 13.32045 7878 ft 275 kts 119°
2026-04-29 11:34 51.11687 13.34556 7657 ft 273 kts 122°
2026-04-29 11:34 51.10287 13.36623 7406 ft 279 kts 147°
2026-04-29 11:34 51.08458 13.37623 7174 ft 279 kts 167°
2026-04-29 11:35 51.06526 13.38020 6968 ft 279 kts 172°
2026-04-29 11:35 51.04593 13.38293 6842 ft 280 kts 172°
2026-04-29 11:35 51.02649 13.38554 6705 ft 280 kts 178°
2026-04-29 11:35 51.00753 13.37893 6573 ft 283 kts 203°
2026-04-29 11:36 50.99126 13.36124 6446 ft 284 kts 219°
2026-04-29 11:36 50.97426 13.34544 6306 ft 283 kts 197°
2026-04-29 11:36 50.95514 13.34153 6179 ft 276 kts 172°
2026-04-29 11:36 50.93711 13.35007 5916 ft 268 kts 148°
2026-04-29 11:37 50.92391 13.36915 5705 ft 248 kts 119°
2026-04-29 11:37 50.91960 13.39357 5586 ft 221 kts 84°
2026-04-29 11:37 50.92455 13.41537 5509 ft 206 kts 58°
2026-04-29 11:37 50.93248 13.43400 5402 ft 202 kts 54°
2026-04-29 11:38 50.94059 13.45194 5360 ft 205 kts 54°
2026-04-29 11:38 50.94904 13.46994 5242 ft 202 kts 55°
2026-04-29 11:38 50.95675 13.48866 5169 ft 205 kts 58°
2026-04-29 11:38 50.96432 13.50819 5022 ft 206 kts 57°
2026-04-29 11:39 50.97388 13.52451 4870 ft 200 kts 43°
2026-04-29 11:39 50.98268 13.54128 4693 ft 195 kts 58°
2026-04-29 11:39 50.98924 13.55986 4531 ft 192 kts 54°
2026-04-29 11:39 50.99825 13.57553 4257 ft 192 kts 45°
2026-04-29 11:40 51.00461 13.58514 4097 ft 188 kts 44°
2026-04-29 11:40 51.01405 13.59920 3812 ft 184 kts 43°
2026-04-29 11:40 51.02330 13.61287 3589 ft 181 kts 44°
2026-04-29 11:40 51.03264 13.62629 3334 ft 180 kts 41°
2026-04-29 11:41 51.04176 13.63912 3063 ft 169 kts 43°
2026-04-29 11:41 51.05021 13.65127 2792 ft 159 kts 43°
2026-04-29 11:41 51.05796 13.66260 2642 ft 147 kts 44°
2026-04-29 11:41 51.06538 13.67312 2459 ft 140 kts 42°
2026-04-29 11:42 51.07281 13.68333 2227 ft 141 kts 41°
2026-04-29 11:42 51.08014 13.69340 2013 ft 140 kts 41°
2026-04-29 11:42 51.08744 13.70354 1823 ft 140 kts 43°
2026-04-29 11:42 51.09469 13.71370 1622 ft 140 kts 41°
2026-04-29 11:43 51.10217 13.72359 1390 ft 139 kts 41°
2026-04-29 11:43 51.10939 13.73360 1205 ft 138 kts 43°
2026-04-29 11:43 51.11682 13.74384 1035 ft 144 kts 43°
2026-04-29 11:43 51.12429 13.75414 819 ft 139 kts 43°
2026-04-29 11:44 51.13132 13.76380 748 ft 124 kts 40°
2026-04-29 11:44 51.13675 13.77130 736 ft 90 kts 42°
2026-04-29 11:44 51.14083 13.77682 722 ft 57 kts 40°
2026-04-29 11:44 51.14320 13.78012 721 ft 33 kts 42°
2026-04-29 11:45 51.14353 13.78192 714 ft 17 kts 118°
2026-04-29 11:45 51.14248 13.78352 714 ft 18 kts 163°
2026-04-29 11:45 51.14182 13.78299 717 ft 8 kts 223°
2026-04-29 11:45 51.14079 13.78161 719 ft 24 kts 220°
2026-04-29 11:46 51.13947 13.77983 720 ft 25 kts 219°
2026-04-29 11:46 51.13810 13.77797 721 ft 25 kts 221°
2026-04-29 11:46 51.13679 13.77612 726 ft 25 kts 222°
2026-04-29 11:46 51.13548 13.77437 730 ft 25 kts 221°
2026-04-29 11:47 51.13421 13.77256 734 ft 25 kts 222°
2026-04-29 11:47 51.13289 13.77081 738 ft 24 kts 219°
2026-04-29 11:47 51.13164 13.76912 741 ft 23 kts 221°
2026-04-29 11:47 51.13045 13.76745 747 ft 23 kts 221°
2026-04-29 11:48 51.12929 13.76583 747 ft 23 kts 220°
2026-04-29 11:48 51.12839 13.76463 749 ft 13 kts 217°
2026-04-29 11:48 51.12763 13.76486 753 ft 11 kts 148°
2026-04-29 11:48 51.12712 13.76580 752 ft 11 kts 127°
2026-04-29 11:49 51.12671 13.76592 755 ft 5 kts 195°
2026-04-29 11:49 51.12645 13.76564 755 ft 1 kts 216°
2026-04-29 11:49 51.12638 13.76555 757 ft 2 kts 217°
2026-04-29 11:49 51.12633 13.76549 757 ft 0 kts 217°